Wetbulb
41.18 42.40 44.06 44.84 44.84 45.77 46.30 47.18 47.53 45.96 45.22 43.90 43.37 42.66 41.90 40.99 41.51 42.69 42.84 43.06 44.07 43.95
39.45 39.86 39.84 41.89 44.42 45.48 45.96 45.78 46.84 46.96 45.88 44.46 42.31 41.96 41.20 40.08 39.84 40.59 42.25 43.71 43.52 42.88
37.47 38.36 39.21 39.65 39.30 40.51 42.52 44.77 45.47 46.32 46.39 45.79 42.95 41.72 40.55 39.38 39.40 39.12 40.04 41.02 42.22 42.42
35.83 36.59 37.39 37.07 37.52 38.07 39.14 40.32 42.24 44.09 44.51 44.79 44.48 41.86 40.06 39.26 39.03 38.24 39.01 39.38 40.67 41.19
35.10 34.80 34.27 33.46 34.32 36.03 35.80 36.59 38.12 41.00 42.98 43.44 43.53 43.45 40.37 39.37 38.73 37.83 38.10 39.03 39.85 39.79
33.44 32.91 32.38 31.90 32.65 32.88 32.54 32.56 35.21 37.92 40.26 41.61 41.52 42.71 41.98 40.23 38.33 38.03 38.24 38.75 39.38 39.19
31.71 31.36 30.99 31.20 30.57 30.83 31.68 31.84 32.34 33.08 32.95 33.29 33.94 36.72 36.52 39.53 39.04 37.61 37.47 38.16 38.75 39.28
30.82 31.29 29.23 29.25 28.44 29.61 30.37 31.54 31.59 31.68 32.48 32.82 34.38 37.07 38.20 38.14 38.66 38.01 36.77 35.83 37.52 38.78
28.62 27.60 27.02 27.70 25.91 27.35 28.06 29.74 31.38 31.62 31.64 31.76 34.54 36.81 37.15 37.58 37.93 35.84 35.34 35.09 34.84 36.59
27.14 25.35 25.54 26.60 25.60 25.78 26.97 29.40 29.07 30.15 31.82 32.02 32.42 35.35 36.25 36.41 35.82 35.55 35.17 35.00 34.47 33.83
24.10 22.60 24.10 24.47 23.85 26.22 29.59 29.13 29.52 29.63 30.56 31.01 33.00 34.65 35.74 35.70 35.47 34.92 34.54 34.98 34.77 34.66
25.63 23.15 23.41 22.25 24.67 28.59 29.09 29.50 29.39 30.31 29.75 30.20 31.31 33.95 34.73 35.16 34.29 33.44 33.53 33.49 34.12 34.72
26.81 24.37 23.16 26.43 26.26 29.60 29.07 29.14 29.65 29.62 30.02 29.46 30.99 34.01 34.56 35.05 33.60 32.95 32.78 32.84 33.09 32.63
27.07 25.52 26.26 27.13 28.92 28.68 28.47 28.67 27.83 28.50 29.95 30.09 31.21 31.90 34.35 35.08 33.46 33.27 32.75 32.69 32.27 33.00
MSLP
1020.47 1020.40 1020.33 1020.25 1020.20 1020.33 1020.35 1020.29 1020.23 1020.73 1020.99 1021.28 1021.36 1021.55 1021.87 1022.08 1022.16 1022.19 1022.21 1021.92 1021.95 1022.24
1021.05 1020.96 1020.96 1020.89 1020.68 1020.59 1020.45 1020.39 1020.28 1020.49 1020.84 1021.27 1021.54 1021.59 1021.93 1022.08 1022.14 1022.30 1022.32 1022.19 1022.16 1022.46
1021.96 1021.75 1021.53 1021.36 1021.28 1021.20 1020.92 1020.56 1020.51 1020.64 1020.64 1020.68 1021.19 1021.53 1021.90 1022.02 1022.35 1022.40 1022.43 1022.53 1022.31 1022.55
1022.64 1022.64 1022.42 1022.15 1021.99 1021.78 1021.40 1021.13 1020.91 1020.76 1020.82 1020.86 1021.03 1021.37 1021.77 1021.92 1022.22 1022.42 1022.50 1022.52 1022.55 1022.64
1023.15 1023.18 1023.14 1023.11 1022.87 1022.53 1022.29 1022.07 1021.56 1021.10 1020.90 1020.86 1020.94 1021.21 1021.44 1021.74 1021.96 1022.22 1022.45 1022.49 1022.48 1022.41
1023.53 1023.58 1023.75 1023.71 1023.45 1023.20 1022.90 1022.64 1022.17 1021.58 1021.29 1021.18 1021.15 1021.15 1021.33 1021.49 1021.75 1021.97 1022.16 1022.32 1022.41 1022.42
1023.94 1024.04 1024.14 1023.98 1023.73 1023.48 1023.29 1022.94 1022.51 1022.10 1021.78 1021.60 1021.46 1021.37 1021.38 1021.50 1021.67 1021.75 1021.94 1021.96 1022.19 1022.45
1024.08 1024.16 1024.16 1024.04 1023.87 1023.57 1023.32 1023.03 1022.81 1022.42 1022.14 1021.86 1021.56 1021.35 1021.25 1021.36 1021.47 1021.56 1021.67 1021.86 1021.91 1022.17
1024.09 1024.15 1024.05 1023.92 1023.80 1023.60 1023.37 1023.06 1022.86 1022.58 1022.33 1021.99 1021.69 1021.48 1021.36 1021.37 1021.31 1021.45 1021.55 1021.78 1021.96 1021.99
1023.84 1023.89 1023.86 1023.88 1023.82 1023.61 1023.42 1023.19 1022.91 1022.62 1022.40 1022.13 1021.84 1021.54 1021.33 1021.23 1021.27 1021.28 1021.45 1021.51 1021.76 1022.03
1023.55 1023.71 1023.68 1023.70 1023.67 1023.50 1023.24 1023.05 1022.82 1022.52 1022.29 1022.08 1021.79 1021.54 1021.23 1021.01 1020.94 1021.09 1021.24 1021.48 1021.49 1021.76
1022.63 1023.08 1023.32 1023.51 1023.38 1023.17 1022.99 1022.75 1022.62 1022.47 1022.20 1021.98 1021.72 1021.49 1021.19 1020.97 1020.82 1020.90 1020.98 1021.40 1021.52 1021.50
1022.41 1022.56 1022.71 1022.75 1022.87 1022.82 1022.77 1022.55 1022.40 1022.22 1022.08 1021.89 1021.57 1021.32 1021.12 1020.88 1020.84 1020.66 1020.75 1021.00 1021.29 1021.31
1021.98 1022.01 1022.07 1022.19 1022.32 1022.38 1022.41 1022.30 1022.08 1021.85 1021.59 1021.44 1021.35 1021.09 1020.96 1020.72 1020.66 1020.52 1020.41 1020.59 1020.87 1021.11
Wind_Speed
12 7 7 5 2 3 3 3 3 4 4 3 4 4 3 2 2 4 4 3 3 2
11 11 9 9 8 5 1 1 2 2 4 5 4 4 4 3 4 3 4 3 2 2
10 10 10 9 10 9 8 7 4 2 4 5 4 4 4 3 3 4 2 2 2 3
9 9 9 9 9 9 9 9 7 5 4 3 4 5 5 4 4 4 4 3 3 3
7 8 9 9 9 10 10 10 8 7 6 5 4 6 6 6 5 6 5 4 4 4
6 7 6 6 6 8 8 8 9 8 7 6 5 4 5 5 6 6 6 5 6 4
4 5 5 5 6 6 6 7 8 7 7 6 5 5 3 4 5 5 5 5 5 5
2 1 2 3 4 5 5 5 7 8 7 6 5 4 4 5 5 6 6 5 5 4
2 2 3 3 3 5 6 5 5 7 8 8 4 7 6 7 4 4 5 6 5 4
3 3 3 2 2 3 4 5 6 6 7 9 8 11 9 7 4 3 5 6 6 5
5 5 4 3 3 2 2 4 5 6 6 8 6 12 12 9 3 3 3 5 6 7
8 6 5 4 4 2 3 3 4 4 7 7 8 12 12 9 2 4 4 4 5 6
5 5 6 5 4 3 3 4 3 5 5 6 8 9 12 9 2 4 3 4 4 9
4 6 6 6 5 4 4 4 3 5 5 5 5 7 10 11 3 4 3 4 4 4
Wind_Direction
37 33 29 24 48 8 354 336 155 195 204 198 173 166 168 167 231 256 244 226 181 170
27 32 25 20 15 13 99 316 332 213 204 201 196 180 179 189 211 242 254 235 181 193
18 17 21 21 18 9 2 350 343 265 230 199 192 187 185 189 193 216 232 286 202 190
25 18 18 19 11 4 357 352 339 323 303 259 207 191 196 197 191 208 214 205 217 218
23 22 19 14 5 359 355 349 333 324 307 273 237 215 199 204 196 192 211 211 213 187
15 21 11 358 353 354 350 342 348 342 336 332 334 294 224 222 201 198 198 209 216 198
4 4 355 344 349 344 342 347 347 348 333 322 302 289 267 247 222 204 197 193 204 222
292 300 307 337 340 339 343 341 340 339 344 338 318 281 251 240 242 222 202 200 195 211
235 274 294 328 334 338 336 341 338 347 346 341 335 326 301 275 253 216 204 202 204 193
231 247 253 269 319 319 335 331 334 340 336 339 333 331 315 290 255 230 224 204 191 192
213 230 242 243 268 290 315 327 327 327 329 328 326 328 324 302 246 216 222 225 197 191
210 212 205 224 239 261 285 312 314 310 316 320 320 324 326 316 234 212 209 212 208 192
227 211 205 210 204 225 247 272 292 300 293 293 301 311 314 318 258 215 206 183 216 213
225 213 215 211 211 205 230 257 260 278 285 285 276 293 303 309 280 241 206 193 200 215